Disclaimer

Please do not use the information listed here in-flight or in-navigation, as they are not provided to us by the airports but are provided by volunteers, so they might be outdated.

Search


Regions


Airport information page

No radio frequency information is available.

Airport informations:
Latitude: 45° 00' 07.55" N
Longitude: 037° 20' 50.18" E
Elevation: 174 feet - 53 meters
Operating hours: Remarks
Operating agency: Civil government, landing fees and diplomatic clearance may be required
Timezone: UTC+3(+4DT) - Last Sunday in March to last Sunday in October
Fuel: N/A

Runway information:
04/22 - 8202 x 138 feet< - >2500 x 42 meters

Recent METARs:
URKA 152130Z AUTO 01006MPS 7000 -RASN ///005/// 04/04 Q0997 RMK QFE744/0992
URKA 152200Z AUTO 02006MPS 4400 -RASN ///005/// 04/04 Q0997 RMK QFE744/0992
URKA 152230Z AUTO 36007MPS 9000 -RA ///019/// 04/03 Q0996 RMK QFE743/0991

Airport on the map: